Weather History for Hilo, HI

Change the Weather History Date:

Sunday, November 3, 2013

  Actual Average Record
Temperature  
Mean Temperature 75 °F 75 °F  
Max Temperature 82 °F 82 °F 87 °F (1993)
Min Temperature 68 °F 68 °F 61 °F (1970)
Degree Days  
Heating Degree Days 0 0  
Month to date heating degree days 0 0  
Since 1 July heating degree days 0 0  
Cooling Degree Days 10 10  
Month to date cooling degree days 30 30  
Year to date cooling degree days 3002 2765  
Growing Degree Days 25 (Base 50)    
Moisture  
Dew Point 68 °F    
Average Humidity 80    
Maximum Humidity 93    
Minimum Humidity 67    
Precipitation  
Precipitation 0.20 in 0.49 in 3.39 in (1984)
Month to date precipitation 1.54 1.48  
Year to date precipitation 76.86 101.13  
Snow  
Snow 0.00 in - - ()
Month to date snowfall 0.0  
Since 1 July snowfall 0.0  
Since 1 September snowfall 0.0  
Snow Depth 0.00 in    
Sea Level Pressure  
Sea Level Pressure 30.04 in    
Wind  
Wind Speed 6 mph (West)    
Max Wind Speed 12 mph    
Max Gust Speed 15 mph    
Visibility 10 miles    
Events Rain    
T = Trace of Precipitation, MM = Missing Value Source: NWS Daily Summary

Daily Weather History Graph

Daily Weather History Graph

Search for Another Location

Airport:

Trip Planner

Search our weather history database for the weather conditions in past years. The results will help you decide how hot, cold, wet, or windy it might be!

Date:

Astronomy

Nov. 03, 2013 Rise Set
Actual Time 6:22 AM HST 5:44 PM HST
Civil Twilight 5:59 AM HST 6:07 PM HST
Nautical Twilight 5:33 AM HST 6:33 PM HST
Astronomical Twilight 5:07 AM HST 6:59 PM HST
Moon 6:35 AM HST (11/3) 6:13 PM HST (11/3)
Length of Visible Light 12h 07m
Length of Day
11h 22m
New Moon, 0% of the Moon is Illuminated
Nov 3
New Moon
Nov 9
First Quarter
Nov 17
Full
Nov 25
Last Quarter
Dec 2
New

Hourly Weather History & Observations

Time (HST) Temp. Heat Index Dew Point Humidity Pressure Visibility Wind Dir Wind Speed Gust Speed Precip Events Conditions
12:53 AM 71.1 °F - 68.0 °F 90% 30.06 in 10.0 mi WSW 5.8 mph - N/A   Mostly Cloudy
1:53 AM 70.0 °F - 66.9 °F 90% 30.04 in 10.0 mi WSW 6.9 mph - N/A   Mostly Cloudy
2:53 AM 70.0 °F - 66.9 °F 90% 30.03 in 10.0 mi Variable 3.5 mph - 0.00 in Rain Light Rain
3:00 AM 70.0 °F - 66.9 °F 90% 30.04 in 10.0 mi SSW 3.5 mph - 0.00 in   Mostly Cloudy
3:24 AM 69.1 °F - 66.9 °F 93% 30.04 in 10.0 mi SW 6.9 mph - 0.01 in   Scattered Clouds
3:53 AM 68.0 °F - 64.9 °F 90% 30.04 in 10.0 mi SW 6.9 mph - 0.01 in   Scattered Clouds
4:53 AM 68.0 °F - 66.0 °F 93% 30.03 in 10.0 mi WSW 8.1 mph - 0.00 in   Partly Cloudy
5:53 AM 69.1 °F - 64.9 °F 87% 30.05 in 10.0 mi SW 6.9 mph - 0.00 in   Mostly Cloudy
6:53 AM 69.1 °F - 66.0 °F 90% 30.06 in 10.0 mi SW 3.5 mph - N/A   Scattered Clouds
7:53 AM 72.0 °F - 66.9 °F 84% 30.07 in 10.0 mi WSW 3.5 mph - N/A   Partly Cloudy
8:53 AM 75.0 °F - 70.0 °F 84% 30.09 in 10.0 mi NW 4.6 mph - 0.03 in   Partly Cloudy
9:53 AM 80.1 °F 82.9 °F 69.1 °F 69% 30.09 in 10.0 mi NNW 8.1 mph - N/A   Clear
10:53 AM 81.0 °F 83.8 °F 68.0 °F 65% 30.07 in 10.0 mi NNW 6.9 mph - N/A   Partly Cloudy
11:53 AM 80.1 °F 82.9 °F 69.1 °F 69% 30.04 in 10.0 mi North 10.4 mph - 0.00 in   Scattered Clouds
12:53 PM 81.0 °F 84.1 °F 69.1 °F 67% 30.02 in 10.0 mi North 5.8 mph - N/A   Partly Cloudy
1:39 PM 79.0 °F - 69.1 °F 72% 30.01 in 10.0 mi NNE 9.2 mph - 0.00 in   Mostly Cloudy
1:53 PM 79.0 °F - 69.1 °F 72% 30.00 in 10.0 mi NE 10.4 mph - 0.00 in   Scattered Clouds
2:53 PM 77.0 °F - 70.0 °F 79% 29.97 in 10.0 mi NE 5.8 mph - 0.01 in Rain Light Rain
3:53 PM 78.1 °F - 68.0 °F 71% 30.00 in 10.0 mi NE 6.9 mph - 0.00 in   Mostly Cloudy
4:53 PM 77.0 °F - 68.0 °F 74% 29.99 in 10.0 mi NNE 4.6 mph - N/A   Overcast
5:53 PM 75.9 °F - 66.9 °F 74% 30.00 in 10.0 mi Calm Calm - 0.00 in Rain Light Rain
6:08 PM 75.9 °F - 69.1 °F 79% 30.01 in 10.0 mi North 6.9 mph - 0.00 in   Mostly Cloudy
6:20 PM 75.9 °F - 68.0 °F 76% 30.02 in 10.0 mi NNW 3.5 mph - 0.00 in   Mostly Cloudy
6:33 PM 75.0 °F - 69.1 °F 82% 30.01 in 10.0 mi Calm Calm - 0.00 in   Overcast
6:53 PM 73.9 °F - 69.1 °F 85% 30.01 in 10.0 mi WNW 5.8 mph - 0.00 in   Mostly Cloudy
7:53 PM 73.0 °F - 68.0 °F 84% 30.04 in 10.0 mi West 5.8 mph - N/A   Overcast
8:32 PM 72.0 °F - 68.0 °F 87% 30.06 in 10.0 mi South 3.5 mph - 0.00 in Rain Light Rain
8:53 PM 71.1 °F - 68.0 °F 90% 30.05 in 10.0 mi South 6.9 mph - 0.00 in   Mostly Cloudy
9:05 PM 71.1 °F - 68.0 °F 90% 30.05 in 10.0 mi SSW 5.8 mph - N/A   Mostly Cloudy
9:53 PM 71.1 °F - 68.0 °F 90% 30.04 in 10.0 mi SW 4.6 mph - N/A   Mostly Cloudy
10:25 PM 72.0 °F - 69.1 °F 91% 30.05 in 7.0 mi WSW 6.9 mph - 0.04 in Rain Light Rain
10:53 PM 73.0 °F - 69.1 °F 87% 30.05 in 10.0 mi Variable 4.6 mph - 0.05 in   Overcast
11:02 PM 73.0 °F - 68.0 °F 84% 30.04 in 10.0 mi West 8.1 mph - N/A   Mostly Cloudy
11:53 PM 70.0 °F - 68.0 °F 93% 30.04 in 10.0 mi SW 8.1 mph - 0.10 in Rain Light Rain